Location: Gleizolles
(44.4833°N, 6.7667°E)
Time: 15:10:48
(UTC+00:00)

Vanguard 1 - Pass Details

Date: 27 June 2024
Orbit: 650 x 3826 km, 34.3° (Epoch: 22 July)

Event Time Altitude Azimuth Distance (km) Brightness Sun altitude
Rises 07:19:47 0° 205° (SSW) 7,123 14.2 34.3°
Reaches altitude 10° 07:27:11 10° 190° (S) 5,488 13.9 35.6°
Maximum altitude 07:35:58 18° 154° (SSE) 3,935 13.7 37.2°
Drops below altitude 10° 07:42:22 10° 116° (ESE) 3,829 14.2 38.3°
Sets 07:46:07 0° 98° (E) 4,353 14.3 39.0°
